Regional Weather Roundup
Issued by NWS

Home | Current Version | Previous Version | Graphics & Text | Print | Product List | Glossary On
Versions: 1 2 3 4 5 6 7 8 9 10 11 12 13 14 15 16 17 18 19 20 21 22 23 24 25 26 27
000
ASUS43 KDMX 240007
RWRIA

WEATHER ROUNDUP FOR IOWA
NATIONAL WEATHER SERVICE DES MOINES IA
700 PM CDT THU OCT 23 2014

NOTE: "FAIR" INDICATES FEW OR NO CLOUDS BELOW 12,000 FEET WITH NO
SIGNIFICANT WEATHER AND/OR OBSTRUCTIONS TO VISIBILITY.

* - THESE STATIONS ARE NOT NWS STATIONS...THUS NOT UNDER NWS
QUALITY CONTROL.  THEY ALSO DO NOT REPORT WEATHER SUCH
AS PRECIPITATION OR FOG.

IAZ001>003-012>014-020>022-031>034-043>046-240100-
   NORTHWEST IOWA

CITY           SKY/WX    TMP DP  RH WIND       PRES   REMARKS
CARROLL *      CLEAR     54  45  71 S3        30.00S
CHEROKEE *     CLEAR     56  47  72 CALM      29.99S
DENISON *      CLEAR     57  46  67 CALM      29.99R
LE MARS *      CLEAR     61  48  63 SE6       29.98R
ORANGE CITY *  CLEAR     63  46  55 S5        29.98S
SHELDON *      CLEAR     55  46  71 S6        29.97S
SIOUX CITY     CLEAR     59  44  57 S7        29.98S
6HR MIN TEMP:  59; 6HR MAX TEMP:  73;

SPENCER        CLEAR     53  45  74 SW5       29.99S
6HR MIN TEMP:  53; 6HR MAX TEMP:  71;

STORM LAKE *   CLEAR     59  43  55 SW6       30.01R
$$

IAZ055>058-069>071-079>083-090>094-240100-
   SOUTHWEST IOWA

CITY           SKY/WX    TMP DP  RH WIND       PRES   REMARKS
ATLANTIC *     CLEAR     57  46  67 S3        30.01R
AUDUBON *      CLEAR     54  45  71 CALM      30.02S
CLARINDA *     CLEAR     55  52  88 CALM      30.04R
COUNCIL BLFS * CLEAR     64  48  55 SW5       30.01R
CRESTON *      CLEAR     64  46  52 CALM      30.03R
HARLAN  *      CLEAR     59  46  63 SW3       30.05R
LAMONI         CLEAR     63  56  78 S5        30.03R
6HR MIN TEMP:  58; 6HR MAX TEMP:  68; 6HR PCP:  0.01;

RED OAK *      CLEAR     61  50  67 CALM      30.02S
SHENANDOAH *   CLEAR     63  50  63 CALM      30.03R
$$

IAZ047>049-059>061-072>074-084-240100-
   CENTRAL IOWA

CITY           SKY/WX    TMP DP  RH WIND       PRES   REMARKS
AMES           CLEAR     54  47  77 CALM      30.02R
6HR MIN TEMP:  54; 6HR MAX TEMP:  70;

ANKENY *       CLEAR     55  52  88 CALM      30.02R
CHARITON *     CLEAR     57  55  94 S7        30.03R
DES MOINES     PTCLDY    62  51  67 SE7       30.02R
6HR MIN TEMP:  62; 6HR MAX TEMP:  73;

GRINNELL*      CLEAR     54  52  92 CALM      30.04R
KNOXVILLE *    CLEAR     59  55  88 SE5       30.02R
MARSHALLTOWN   CLEAR     58  54  86 S6        30.02R
6HR MIN TEMP:  57; 6HR MAX TEMP:  67;

PELLA *        CLEAR     58  55  91 S3        30.04R
PERRY *          N/A     54  46  76 CALM      30.01S
$$

IAZ004>006-015-016-023>025-035-036-240100-
   NORTH CENTRAL IOWA

CITY           SKY/WX    TMP DP  RH WIND       PRES   REMARKS
ALGONA *       CLEAR     57  46  67 S7        30.00R
CLARION *      CLEAR     52  46  82 S5        30.01R
ESTHERVILLE    CLEAR     56  40  55 SW5       29.99R
6HR MIN TEMP:  56; 6HR MAX TEMP:  71;

FORT DODGE *   CLEAR     54  45  71 CALM      30.01R
MASON CITY     CLEAR     51  45  79 S3        30.02R
6HR MIN TEMP:  51; 6HR MAX TEMP:  67;

FOREST CITY *  CLEAR     54  46  76 S3        30.00R
IOWA FALLS *     N/A     57  46  67 CALM      30.03R
$$

IAZ007>011-017>019-026>030-037>042-050>054-066-240100-
   NORTHEAST IOWA

CITY           SKY/WX    TMP DP  RH WIND       PRES   REMARKS
CEDAR RAPIDS   MOCLDY    51  50  96 CALM      30.03R
6HR MIN TEMP:  50; 6HR MAX TEMP:  59;

CHARLES CITY * CLEAR     52  50  93 SE6       30.03R
CLINTON *      CLOUDY    54  50  87 CALM      30.07S
DECORAH *      CLOUDY    52  52 100 CALM      30.03R FOG
DUBUQUE        CLOUDY    50  50 100 CALM      30.04S
6HR MIN TEMP:  47; 6HR MAX TEMP:  51; 6HR PCP:  0.17;

MONTICELLO *   CLOUDY    54  52  94 CALM      30.03S
OELWEIN *      PTCLDY    52  52 100 CALM      30.04R
WATERLOO       CLEAR     48  48 100 E5        30.03R FOG
6HR MIN TEMP:  48; 6HR MAX TEMP:  60;

$$

IAZ064-065-067-068-078-240100-
   EAST CENTRAL IOWA

CITY           SKY/WX    TMP DP  RH WIND       PRES   REMARKS
DAVENPORT      CLOUDY    57  47  69 S5        30.05R
6HR MIN TEMP:  57; 6HR MAX TEMP:  61;

IOWA CITY      FOG       51  51 100 CALM      30.05R VSB 1/4
6HR MIN TEMP:  52; 6HR MAX TEMP:  58; 6HR PCP: TRACE;

MT. PLEASANT * CLOUDY    58  50  75 SE3       30.04S
MUSCATINE *    MOCLDY    59  50  72 S3        30.04S
QUAD CITIES    CLOUDY    59  47  64 S3        30.04S
6HR MIN TEMP:  58; 6HR MAX TEMP:  61;

$$

IAZ062-063-075>077-085>089-095>099-240100-
   SOUTHEAST IOWA

CITY           SKY/WX    TMP DP  RH WIND       PRES   REMARKS
BURLINGTON     CLOUDY    57  51  80 S7        30.04R
6HR MIN TEMP:  56; 6HR MAX TEMP:  62;

FAIRFIELD *    CLOUDY    61  55  82 NW3       30.04R
FORT MADISON * PTCLDY    57  54  88 S6        30.06R
KEOKUK *       PTCLDY    57  52  82 S6        30.04S
OSKALOOSA *      N/A     53  52  95 SW5       30.04R FOG
CENTERVILLE *  CLEAR     50  50 100 CALM      30.05R
OTTUMWA        PTCLDY    56  53  90 SW5       30.03R
6HR MIN TEMP:  55; 6HR MAX TEMP:  67;

WASHINGTON *   CLOUDY    61  59  94 N3        30.03S
$$

ABBREVIATIONS USED IN REMARKS
   TC - TEMPERATURES IN CELSIUS
  WCI - WIND CHILL INDEX
   HX - HEAT INDEX
  VSB - VISIBILITY
$$




USA.gov is the U.S. government's official web portal to all federal, state and local government web resources and services.